Tri-Cities, TN

4:01 PM EST on December 15, 2019 (GMT -0500)
Tri-Cities Regional Tennessee / Virginia

Weather History for KTRI - October, 2019

Change the Weather History Date:

Saturday, October 19, 2019

  Actual Average Record
Temperature  
Mean Temperature 53 °F 55 °F  
Max Temperature 68 °F 68 °F 86 °F (2016)
Min Temperature 37 °F 42 °F 24 °F (1948)
Degree Days  
Heating Degree Days 12 10  
Month to date heating degree days 81 141  
Since 1 July heating degree days 81 194  
Cooling Degree Days 0 0  
Month to date cooling degree days 67 9  
Year to date cooling degree days 1452 977  
Growing Degree Days 2 (Base 50)    
Moisture  
Dew Point 44 °F    
Average Humidity 71    
Maximum Humidity 100    
Minimum Humidity 42    
Precipitation  
Precipitation 1.15 in 0.06 in 1.15 in (2019)
Month to date precipitation 3.18 1.24  
Year to date precipitation 44.79 33.68  
Snow  
Snow 0.00 in 0.00 in - ()
Month to date snowfall 0.0 0.0  
Since 1 July snowfall 0.0 0.0  
Since 1 September snowfall 0.0 0.0  
Snow Depth 0.00 in    
Sea Level Pressure  
Sea Level Pressure 29.94 in    
Wind  
Wind Speed 3 mph (East)    
Max Wind Speed 12 mph    
Max Gust Speed 16 mph    
Visibility 8 miles    
Events Rain    
T = Trace of Precipitation, MM = Missing Value Source: NWS Daily Summary

Daily Weather History Graph

Daily Weather History Graph

Search for Another Location

Airport or City:

Astronomy

Oct. 19, 2019 Rise Set
Actual Time 7:40 AM EDT 6:48 PM EDT
Civil Twilight 7:14 AM EDT 7:14 PM EDT
Nautical Twilight 6:44 AM EDT 7:44 PM EDT
Astronomical Twilight 6:14 AM EDT 8:14 PM EDT
Moon 11:03 PM EDT (10/19) 1:04 PM EDT (10/19)
Length of Visible Light 12h 00m
Length of Day
11h 08m
Waning Gibbous, 70% of the Moon is Illuminated
Oct 19
Waning Gibbous
Oct 21
Last Quarter
Oct 27
New
Nov 4
First Quarter
Nov 12
Full

Hourly Weather History & Observations

Time (EDT) Temp. Windchill Dew Point Humidity Pressure Visibility Wind Dir Wind Speed Gust Speed Precip Events Conditions
12:53 AM 42.1 °F - 39.0 °F 89% 29.98 in 10.0 mi Calm Calm - N/A   Mostly Cloudy
1:53 AM 41.0 °F - 39.0 °F 93% 29.98 in 10.0 mi Calm Calm - N/A   Mostly Cloudy
2:53 AM 41.0 °F 39.0 °F 39.0 °F 93% 29.97 in 10.0 mi NNE 3.5 mph - N/A   Mostly Cloudy
3:53 AM 39.9 °F - 37.9 °F 93% 29.97 in 10.0 mi Calm Calm - N/A   Mostly Cloudy
4:53 AM 39.9 °F - 37.0 °F 89% 29.96 in 10.0 mi Calm Calm - N/A   Scattered Clouds
5:53 AM 39.0 °F - 36.0 °F 89% 29.96 in 10.0 mi Calm Calm - N/A   Mostly Cloudy
6:53 AM 37.9 °F - 36.0 °F 93% 29.97 in 10.0 mi Calm Calm - N/A   Mostly Cloudy
7:53 AM 41.0 °F - 37.9 °F 89% 29.99 in 10.0 mi Calm Calm - N/A   Mostly Cloudy
8:53 AM 42.1 °F - 39.9 °F 92% 30.01 in 10.0 mi Calm Calm - N/A   Mostly Cloudy
9:53 AM 48.0 °F - 42.1 °F 80% 30.01 in 10.0 mi ENE 3.5 mph - N/A   Mostly Cloudy
10:53 AM 54.0 °F - 43.0 °F 66% 30.01 in 10.0 mi East 3.5 mph - N/A   Mostly Cloudy
11:53 AM 57.9 °F - 43.0 °F 58% 29.99 in 10.0 mi NE 3.5 mph - N/A   Mostly Cloudy
12:53 PM 64.9 °F - 43.0 °F 45% 29.96 in 10.0 mi NNE 5.8 mph - N/A   Mostly Cloudy
1:53 PM 66.9 °F - 43.0 °F 42% 29.93 in 10.0 mi ENE 3.5 mph - N/A   Mostly Cloudy
2:53 PM 66.9 °F - 44.1 °F 44% 29.91 in 10.0 mi Variable 3.5 mph - 0.00 in   Mostly Cloudy
3:53 PM 66.9 °F - 44.1 °F 44% 29.89 in 10.0 mi SE 5.8 mph - 0.00 in   Overcast
4:53 PM 62.1 °F - 46.0 °F 56% 29.89 in 10.0 mi SE 8.1 mph - 0.00 in Rain Light Rain
5:53 PM 57.9 °F - 46.9 °F 67% 29.89 in 10.0 mi SE 4.6 mph - 0.00 in Rain Light Rain
6:53 PM 54.0 °F - 48.9 °F 83% 29.90 in 6.0 mi Calm Calm - 0.03 in Rain Light Rain
7:53 PM 52.0 °F - 48.9 °F 89% 29.91 in 6.0 mi Calm Calm - 0.07 in Rain Rain
8:53 PM 52.0 °F - 50.0 °F 93% 29.91 in 3.0 mi SSE 3.5 mph - 0.13 in Rain Heavy Rain
9:01 PM 52.0 °F - 50.0 °F 93% 29.93 in 2.5 mi Calm Calm - 0.03 in Rain Heavy Rain
9:53 PM 52.0 °F - 51.1 °F 97% 29.88 in 2.5 mi Variable 4.6 mph - 0.23 in Rain Rain
10:13 PM 53.1 °F - 51.1 °F 93% 29.90 in 2.5 mi Calm Calm - 0.05 in Rain Rain
10:19 PM 53.1 °F - 51.1 °F 93% 29.90 in 2.5 mi Calm Calm - 0.06 in Rain Rain
10:53 PM 52.0 °F - 50.0 °F 93% 29.87 in 8.0 mi Calm Calm - 0.10 in Rain Light Rain
11:16 PM 52.0 °F - 50.0 °F 93% 29.89 in 6.0 mi ENE 3.5 mph - 0.03 in Rain Rain
11:53 PM 51.1 °F - 48.9 °F 92% 29.84 in 2.0 mi ENE 4.6 mph - 0.17 in Rain Heavy Rain